Regional Weather Roundup
Issued by NWS Charleston, WV

Home | Current Version | Previous Version | Text Only | Print | Product List | Glossary Off
Versions: 1 2 3 4 5 6 7 8 9 10 11 12 13 14 15 16 17 18 19 20 21 22 23 24 25 26 27 28 29 30 31 32 33 34 35 36 37 38 39 40 41 42 43 44 45 46 47 48 49 50

000
ASUS41 KRLX 022010
RWRRLX
West Virginia Regional Weather Roundup
National Weather Service Charleston WV
300 PM EST MON MAR 02 2015

Note: "fair" indicates few or no clouds below 12,000 feet with no
significant weather and/or obstructions to visibility.

WVZ003-022100-
Northern Panhandle of West Virginia

CITY           SKY/WX    TMP DP  RH WIND       PRES   REMARKS
WHEELING       PTSUNNY   29  14  53 W9        30.40S
$$

WVZ009-022100-
Northwest West Virginia

CITY           SKY/WX    TMP DP  RH WIND       PRES   REMARKS
PARKERSBURG    SUNNY     35  15  44 NW9       30.46F
$$

WVZ006-022100-
Western West Virginia

CITY           SKY/WX    TMP DP  RH WIND       PRES   REMARKS
HUNTINGTON     SUNNY     37  19  48 CALM      30.41F
$$

WVZ015-022100-
West Central West Virginia

CITY           SKY/WX    TMP DP  RH WIND       PRES   REMARKS
CHARLESTON     MOSUNNY   39  20  46 N8        30.39F
$$

WVZ022-031-022100-
North Central West Virginia

CITY           SKY/WX    TMP DP  RH WIND       PRES   REMARKS
CLARKSBURG     SUNNY     35  20  54 W13       30.38S
MORGANTOWN     SUNNY     35  14  42 NW8       30.38S
$$

WVZ025-035-042-045-022100-
Southern West Virginia

CITY           SKY/WX    TMP DP  RH WIND       PRES   REMARKS
BECKLEY        SUNNY     36  14  40 NW10      30.28F
LOGAN            N/A     39  19  45 VRB6      30.31F
BLUEFIELD      SUNNY     41  17  38 N8        30.27F
LEWISBURG      MOSUNNY   41  12  30 NW7       30.26F
$$

WVZ047-022100-
Northern Mountains of West Virginia

CITY           SKY/WX    TMP DP  RH WIND       PRES   REMARKS
ELKINS         SUNNY     34  18  52 NW7       30.32F
$$

WVZ052-022100-
Eastern Panhandle of West Virginia

CITY           SKY/WX    TMP DP  RH WIND       PRES   REMARKS
MARTINSBURG    SUNNY     41  15  35 W20       30.29S
PETERSBURG     SUNNY     42  10  26 W9G17     30.30S
$$



USA.gov is the U.S. government's official web portal to all federal, state and local government web resources and services.